Regional Weather Roundup
Issued by NWS

Home | Current Version | Previous Version | Graphics & Text | Print | Product List | Glossary On
Versions: 1 2 3 4 5 6 7 8 9 10 11 12 13 14 15 16 17 18 19 20 21 22 23 24 25 26 27 28 29 30 31 32 33 34 35 36 37 38 39 40 41 42 43 44 45 46 47 48 49 50
000
ASUS43 KMKX 192200
RWRWI

WISCONSIN REGIONAL WEATHER ROUNDUP
NATIONAL WEATHER SERVICE MILWAUKEE/SULLIVAN WI
400 PM CST FRI JAN 19 2018

NOTE: "FAIR" INDICATES FEW OR NO CLOUDS BELOW 12,000 FEET WITH NO
SIGNIFICANT WEATHER AND/OR OBSTRUCTIONS TO VISIBILITY.

WIZ001-002-006>008-014>016-023>028-192300-
NORTHWEST WISCONSIN

CITY           SKY/WX    TMP DP  RH WIND       PRES   REMARKS
SUPERIOR ARPT  FAIR      40  28  64 W8        29.43R WCI  34
ASHLAND        FAIR      41  25  53 SW8       29.43R
HAYWARD        FAIR      39  25  57 S8        29.45R WCI  33
SIREN          FAIR      41  26  57 SW9       29.48R
CUMBERLAND     FAIR      36  27  69 SW8       29.47R WCI  29
RICE LAKE      FAIR      40  27  60 SW9       29.50R WCI  33
CHETEK         FAIR      39  27  60 SW7       29.48  WCI  34
LADYSMITH      FAIR      40  26  57 S8        29.49S WCI  35
EAU CLAIRE     FAIR      40  28  62 SW10      29.50R WCI  33
MENOMONIE      FAIR      42  28  57 SW12G17   29.50S
NEW RICHMOND   FAIR      39  27  60 SW7       29.49R WCI  34
OSCEOLA        FAIR      40  29  63 SW7       29.52R
$$

WIZ003>005-009-010-017-018-192300-
NORTH CENTRAL WISCONSIN

CITY           SKY/WX    TMP DP  RH WIND       PRES   REMARKS
MANITOWISH WTR FAIR      39  22  50 SW6       29.42R WCI  35
ARBOR VITAE    FAIR      38  27  65 CALM      29.43R
WOODRUFF       FAIR      38  27  65 CALM      29.43R
RHINELANDER    FAIR      38  26  62 SW10      29.44R WCI  31
EAGLE RIVER    FAIR      34  24  67 CALM      29.42R
LAND O LAKES   FAIR      39  25  58 CALM      29.42F
PHILLIPS       FAIR      40  25  56 SW6       29.45R
TOMAHAWK       FAIR      37  25  61 CALM      29.46R
MEDFORD        FAIR      36  26  66 SW13      29.47R WCI  27
MERRILL        FAIR      40  26  59 SW7       29.47R WCI  35
$$

WIZ029-030-035-036-043>047-192300-
CENTRAL WISCONSIN

CITY           SKY/WX    TMP DP  RH WIND       PRES   REMARKS
WAUSAU         FAIR      37  25  61 SW12      29.47R WCI  29
MOSINEE        PTCLDY    36  27  69 S10       29.49S WCI  28
MARSHFIELD     FAIR      40  26  57 SW10      29.48R WCI  33
STEVENS POINT  FAIR      36  26  66 S8        29.51S WCI  30
WAUPACA        FAIR      41  27  57 S7        29.53F
WAUTOMA        FAIR      39  25  57 S7        29.54F WCI  34
WISC RAPIDS    FAIR      38  24  57 SW12      29.52S WCI  30
CAMP DOUGLAS   MOCLDY    41  27  56 S3        29.53R
$$

WIZ011>013-019>022-031-037>040-048>050-192300-
NORTHEAST WISCONSIN

CITY           SKY/WX    TMP DP  RH WIND       PRES   REMARKS
ANTIGO         FAIR      36  26  66 S9        29.44F WCI  29
SHAWANO        FAIR      39  26  60 S5        29.50F
OCONTO         FAIR      37  26  64 SW9       29.54F WCI  30
STURGEON BAY   FAIR      35  28  75 S12       29.53F WCI  27
GREEN BAY      FAIR      36  26  67 S14       29.54F WCI  27
MANITOWOC      FAIR      37  28  70 S8        29.58S WCI  31
APPLETON       MOCLDY    36  25  64 SW14      29.52F WCI  27
CLINTONVILLE   FAIR      37  27  65 S7        29.52F WCI  32
OSHKOSH        FAIR      36  27  69 S16G24    29.55F WCI  26
$$

WIZ032>034-041-042-053>061-192300-
SOUTHWEST WISCONSIN

CITY           SKY/WX    TMP DP  RH WIND       PRES   REMARKS
LA CROSSE      FAIR      41  28  60 S6        29.56R
SPARTA         FAIR      42  27  54 SW6       29.55R
VIROQUA        FAIR      40  29  64 SW16      29.56R WCI  32
BOSCOBEL       FAIR      43  27  53 S9G20     29.62S
PRAIRIE DU CHI FAIR      44  25  48 S7        29.62R
PLATTEVILLE    FAIR      39  31  70 S15       29.66S WCI  31
$$

WIZ056-057-062-063-064-067-068-192300-
SOUTH CENTRAL WISCONSIN

CITY           SKY/WX    TMP DP  RH WIND       PRES   REMARKS
REEDSBURG      FAIR      40  27  60 SW3       29.57S
BARABOO/DELLS  FAIR      40  25  54 S20G25    29.55F WCI  31
LONE ROCK      FAIR      41  28  60 SW13G20   29.62S
MINERAL POINT  FAIR      39  32  75 S15       29.63F WCI  31
MADISON        MOCLDY    39  26  59 S18G26    29.62F WCI  30
MIDDLETON      FAIR      41  27  57 S13G20    29.63S
WATERTOWN      FAIR      37  27  68 SW13      29.64S WCI  29
MONROE         FAIR      36  28  75 S20       29.66S WCI  25
JANESVILLE     PTCLDY    39  28  65 SW13G22   29.68F WCI  32
$$

WIZ051-052-058>065-066-070>072-192300-
SOUTHEAST WISCONSIN

CITY           SKY/WX    TMP DP  RH WIND       PRES   REMARKS
MILWAUKEE      MOCLDY    40  27  59 SW22G30   29.65F WCI  30
WAUKESHA       CLEAR     37  25  60 SW10G18   29.65F WCI  30
MILWAUKEE/TIMM CLEAR     39  23  52 SW20G25   29.65F WCI  30
RACINE         FAIR      40  26  57 SW18G26   29.69F WCI  31
BURLINGTON     FAIR      38  27  64 SW18      29.69F WCI  28
KENOSHA        FAIR      40  25  55 SW20G29   29.68F WCI  30
FOND DU LAC    FAIR      37  25  61 S17G26    29.56F WCI  27
SHEBOYGAN      FAIR      39  28  64 S14       29.58F WCI  31
WEST BEND      FAIR      37  27  65 S12       29.61F WCI  30
JUNEAU         FAIR      35  26  70 S17       29.62F WCI  25
$$

LSZ147-162-192300-
LAKE SUPERIOR

STATION/POSITION TIME  TEMP    WIND        PRES    WAVE
                       AIR SEA DIR/SP/G            HT/PER
                 (UTC) (F)     (DEG/KT/KT) (MB)    (FT/S)
DEVILS ISLAND    2100   35     240/ 13/ 14  995.7F
SAXON HARBOR     2130   46     190/  9/ 13  994.9F
$$

LMZ867-665-643>646-192300-
LAKE MICHIGAN

STATION/POSITION TIME  TEMP    WIND        PRES    WAVE
                       AIR SEA DIR/SP/G            HT/PER
                 (UTC) (F)     (DEG/KT/KT) (MB)    (FT/S)
NORTHPORT PIER   2140   35     170/  6/ 18 1000.0F
KEWAUNEE LAKESHO 2130   34     180/ 12/ 14 1001.2R
SHEBOYGAN LAKESH 2100   36     180/ 18/ 20 1003.0F
PORT WASHINGTON  2130   42     200/  9/ 14 1004.1F
MILWAUKEE LAKESH 2130   40     210/ 17/ 20   N/A
KENOSHA   LAKESH 2100   42     230/ 13/ 20 1006.8
$$

TC  - TEMPERATURE IN CELSIUS
VSB - VISIBILITY IN STATUTE MILES
WCI - WIND CHILL INDEX
HX  - HEAT INDEX





USA.gov is the U.S. government's official web portal to all federal, state and local government web resources and services.